[[{"header":{"parameterUnit":"m.s-1","parameterCategory":1,"la1":30.2991,"la2":30.254,"lo1":-89.0895,"lo2":-89.0444,"dy":0.0017,"dx":0.0017,"nx":28,"ny":28,"refTime":"2024-06-27T09:00:00:Z","depth":0,"parameterNumber":2,"parameterNumberName":"U-component_of_WINDS"},"data":[0,0,0,0,0,0,0,0,0,0,0,0,0,0,0,0,0,0,0,0,0,0,0,0,0,0,0,0,0,0,0,0,0,0,0,0,0,0,0,0,0,0,0,0,0,0,0,0,0,0,0,0,0,0,0,0,0,0,3.8113,3.8115,0,3.8239,3.8241,3.8242,3.8203,3.8201,3.8198,3.8196,3.8326,3.8331,3.8337,0,0,0,0,0,0,0,0,0,0,0,0,0,3.7839,3.7844,3.8113,3.8115,3.8117,3.8239,3.8241,3.8242,3.8204,3.8201,3.8197,3.8194,3.8324,3.8331,3.8338,0,0,0,0,0,0,0,0,0,0,0,0,0,3.7961,3.7846,3.8113,3.8112,3.8113,3.8239,3.8241,3.8243,3.8205,3.8201,3.8197,3.8193,3.8321,3.833,3.8339,3.8473,0,0,3.8366,3.837,0,0,0,0,0,0,0,0,3.7954,3.7971,3.8111,3.8112,3.8114,3.8201,3.8191,3.832,3.8206,3.817,3.8196,3.8191,3.8288,3.8299,3.8331,3.8479,3.8485,3.8367,3.8372,3.8376,3.8379,0,0,0,0,0,0,0,3.7946,3.7965,3.8163,3.8113,3.8115,3.8105,3.8118,3.8216,3.825,3.8173,3.817,3.8186,3.8288,3.8323,3.8334,3.8487,3.8367,3.8374,3.838,3.8383,3.8747,3.8751,0,0,0,0,0,0,3.7936,3.7959,3.8159,3.8167,3.8022,3.8113,3.8128,3.8177,3.8248,3.8255,3.8189,3.8183,3.831,3.8324,3.8339,3.8497,3.8376,3.8384,3.8389,3.8742,3.8748,3.8752,0,0,0,0,0,0,3.793,3.7954,3.8154,3.8062,3.8087,3.8122,3.8178,3.8182,3.8217,3.8261,3.8266,3.8219,3.8307,3.8326,3.8439,3.8501,3.8388,3.8396,3.8737,3.8744,3.875,3.8817,0,0,0,0,0,0,3.7923,3.7953,3.8004,3.8064,3.8092,3.8253,3.8182,3.8187,3.8232,3.8226,3.829,3.8297,3.8305,3.8426,3.8448,3.8511,3.8403,3.8732,3.874,3.8748,3.8809,3.8825,3.8838,0,0,0,0,0,3.7913,3.8019,3.8007,3.8032,3.8157,3.8256,3.8273,3.828,3.8238,3.8289,3.8317,3.8295,3.8491,3.8438,3.8462,3.8529,3.8728,3.8738,3.8747,3.8803,3.8822,3.8838,0,0,0,0,0,0,3.7968,3.8027,3.8014,3.8143,3.8195,3.825,3.8315,3.8301,3.8366,3.8358,3.8365,3.8379,3.8494,3.8524,3.8463,3.8661,3.8603,3.8618,3.8637,3.8656,3.867,3.8659,3.8411,0,0,0,0,0,3.7995,3.807,3.8118,3.8227,3.8254,3.828,3.8324,3.8325,3.8379,3.8401,3.8437,3.849,3.8563,3.8612,3.8682,3.8814,3.8826,3.8872,3.8887,3.8898,3.891,3.8979,3.8999,3.8784,3.8784,3.8784,0,0,3.8051,3.8093,3.8141,3.8239,3.8279,3.8356,3.8299,3.8384,3.844,3.8414,3.8521,3.855,3.8609,3.8731,3.8787,3.8759,3.8972,3.8911,3.892,3.8926,3.8991,3.9011,3.9029,3.8791,3.879,3.8789,0,0,3.8193,3.8234,3.8326,3.8367,3.8428,3.8445,3.8467,3.8524,3.8541,3.8649,3.863,3.8698,3.8825,3.8867,3.8905,3.906,3.9041,3.9083,3.9158,3.9224,3.9241,3.9256,3.9308,3.9327,3.9096,3.9096,3.9096,0,3.8255,3.837,3.8376,3.8462,3.8504,3.8483,3.8576,3.8616,3.8697,3.8727,3.8695,3.8851,3.8891,3.902,3.9057,3.9091,3.9114,3.9075,3.9238,3.9253,3.9267,3.9317,3.9336,3.91,3.91,3.9099,3.9099,0,3.8442,3.8522,3.859,3.8667,3.8718,3.8807,3.8825,3.8876,3.8873,3.8892,3.9001,3.9047,3.9124,3.9156,3.9155,3.9285,3.9265,3.9236,3.9178,3.9292,3.9338,3.9358,3.9107,3.9105,3.9104,3.9103,0,0,3.8621,3.8698,3.8723,3.8756,3.8821,3.8883,3.897,3.9045,3.9086,3.9143,3.9215,3.9322,3.9294,3.9338,3.9341,3.9399,3.9514,3.9363,3.9364,3.9386,3.9656,3.9675,3.9697,3.9503,3.9507,3.951,3.965,0,3.8765,3.8917,3.8924,3.9063,3.9135,3.9115,3.919,3.9238,3.9258,3.9322,3.9345,3.9419,3.9379,3.9405,3.9462,3.9488,3.9568,3.9479,3.9568,3.9571,3.955,3.9722,3.9743,3.9873,3.9669,3.9672,3.9674,0,3.8953,3.9013,3.9158,3.9209,3.924,3.9308,3.9375,3.9437,3.949,3.95,3.9547,3.9541,3.9629,3.957,3.9689,3.9628,3.9665,3.9684,3.9689,3.9695,3.9627,3.9729,3.9915,3.9933,3.9703,3.9701,3.9699,0,3.9063,3.9181,3.9282,3.9312,3.9376,3.9423,3.9452,3.95,3.9544,3.9603,3.9631,3.97,3.9737,3.9791,3.9803,3.9759,3.9921,3.9864,3.993,3.993,3.9963,3.996,4.0154,3.9993,3.9993,3.9993,3.9992,0,3.9221,3.931,3.9332,3.9394,3.9492,3.9499,3.9596,3.9621,3.9665,3.973,3.9719,3.978,3.9794,3.9858,3.9869,3.9964,3.9982,3.9992,3.9993,3.9991,3.9989,4.0013,4.0003,3.9998,3.9997,3.9996,3.9995,0,3.9361,3.938,3.9487,3.9538,3.9553,3.9622,3.9665,3.9724,3.9743,3.9825,3.9845,3.9875,3.9949,3.9967,4.0057,4.0064,4.0175,4.017,4.0157,4.0155,4.022,4.0212,4.0433,4.0461,4.0285,4.0286,4.0288,0,3.9458,3.9525,3.9583,3.9625,3.9655,3.9725,3.9768,3.9778,3.9823,3.9887,3.9937,4.0011,4.0069,4.0189,4.0218,4.0286,4.0279,4.0352,4.029,4.0284,4.0276,4.027,4.0276,4.0363,4.0365,4.0367,4.0368,0,3.9628,3.9634,3.9696,3.9762,3.9814,3.9866,3.9917,3.9952,3.9968,4.002,4.0096,4.0141,4.0231,4.0303,4.037,4.0399,4.0386,4.0388,4.0406,4.0403,4.0391,4.0395,4.0186,4.0382,4.0381,4.038,4.0379,4.0378,3.9747,3.9804,3.9853,3.9922,3.9961,4.0007,4.0063,4.0088,4.0151,4.0224,4.0226,4.0308,4.0356,4.0446,4.0479,4.0542,4.0519,4.0547,4.0553,4.0559,4.0563,4.0384,4.0555,4.0554,4.0554,4.0554,4.0553,0,3.9913,3.9943,4.0007,4.0076,4.013,4.0113,4.0167,4.0213,4.0284,4.0331,4.0388,4.0473,4.0542,4.0576,4.0644,4.0688,4.0683,4.0705,4.07,4.0706,4.0581,4.0556,4.0707,4.0707,4.0707,4.0707,4.0707,4.0707,4.0006,4.01,4.0111,4.0224,4.0253,4.0332,4.0363,4.0405,4.0442,4.0537,4.0594,4.0615,4.0656,4.0727,4.0789,4.0797,4.0821,4.0845,4.085,4.0732,4.0716,4.0701,4.0677,4.0851,4.0852,4.097,4.0971,4.0972]},{"header":{"parameterUnit":"m.s-1","parameterCategory":1,"la1":30.2991,"la2":30.254,"lo1":-89.0895,"lo2":-89.0444,"dy":0.0017,"dx":0.0017,"nx":28,"ny":28,"refTime":"2024-06-27T09:00:00:Z","depth":0,"parameterNumber":3,"parameterNumberName":"V-component_of_WINDS"},"data":[0,0,0,0,0,0,0,0,0,0,0,0,0,0,0,0,0,0,0,0,0,0,0,0,0,0,0,0,0,0,0,0,0,0,0,0,0,0,0,0,0,0,0,0,0,0,0,0,0,0,0,0,0,0,0,0,0,0,6.5848,6.5848,0,6.5903,6.5904,6.5904,6.5845,6.5843,6.5841,6.5838,6.5892,6.5896,6.5899,0,0,0,0,0,0,0,0,0,0,0,0,0,6.5684,6.5688,6.5847,6.5848,6.5849,6.5903,6.5904,6.5905,6.5846,6.5843,6.584,6.5837,6.5891,6.5895,6.5899,0,0,0,0,0,0,0,0,0,0,0,0,0,6.5749,6.5689,6.5847,6.5826,6.5825,6.5903,6.5904,6.5905,6.5846,6.5843,6.5839,6.5836,6.589,6.5895,6.59,6.6001,0,0,6.5916,6.5919,0,0,0,0,0,0,0,0,6.5745,6.5755,6.5828,6.5828,6.5826,6.5864,6.5866,6.5937,6.5847,6.5838,6.5838,6.5834,6.5885,6.5891,6.5908,6.6004,6.6006,6.5917,6.592,6.5922,6.5924,0,0,0,0,0,0,0,6.5741,6.5752,6.5869,6.583,6.5828,6.5812,6.5817,6.5879,6.588,6.5838,6.5834,6.5842,6.5884,6.5904,6.5909,6.6007,6.5917,6.5921,6.5925,6.5927,6.6182,6.6186,0,0,0,0,0,0,6.574,6.5749,6.5868,6.5871,6.5777,6.5817,6.5824,6.5855,6.5879,6.5879,6.5845,6.5839,6.5896,6.5903,6.5911,6.6027,6.5922,6.5927,6.593,6.6179,6.6183,6.6187,0,0,0,0,0,0,6.5736,6.5751,6.5865,6.5809,6.5822,6.5824,6.586,6.5858,6.5877,6.5884,6.5883,6.5865,6.5894,6.5903,6.5978,6.6028,6.593,6.5934,6.6174,6.618,6.6185,6.6262,0,0,0,0,0,0,6.5732,6.575,6.579,6.581,6.5826,6.5934,6.5863,6.5862,6.5887,6.588,6.5903,6.5903,6.5892,6.5971,6.5983,6.6034,6.5939,6.617,6.6177,6.6183,6.6255,6.627,6.6282,0,0,0,0,0,6.5726,6.581,6.5792,6.5807,6.5876,6.5937,6.5945,6.5931,6.5892,6.593,6.5934,6.5902,6.6021,6.5979,6.5993,6.6045,6.6167,6.6175,6.6183,6.6249,6.6267,6.6282,0,0,0,0,0,0,6.5795,6.5812,6.5793,6.5886,6.591,6.5927,6.5975,6.5951,6.5987,6.5978,6.5959,6.5964,6.6043,6.6052,6.6004,6.6142,6.6087,6.6098,6.6133,6.615,6.6163,6.6157,6.5943,0,0,0,0,0,6.5821,6.5871,6.5883,6.5963,6.5976,6.5974,6.6,6.5987,6.6011,6.6021,6.603,6.6053,6.6095,6.6123,6.6163,6.6257,6.6259,6.63,6.6313,6.6324,6.6333,6.6379,6.6396,6.6213,6.6213,6.6213,0,0,6.5875,6.5891,6.5923,6.5977,6.5995,6.6044,6.5983,6.6039,6.6074,6.6029,6.6099,6.6107,6.6131,6.6215,6.6252,6.6225,6.6384,6.6335,6.6343,6.6346,6.6389,6.6407,6.6422,6.6219,6.6218,6.6217,0,0,6.5998,6.6017,6.6084,6.6102,6.6129,6.6126,6.6142,6.6162,6.6165,6.6235,6.6201,6.6243,6.6317,6.6334,6.6353,6.648,6.645,6.6493,6.6562,6.6607,6.6622,6.6634,6.6675,6.6691,6.6503,6.6503,6.6503,0,6.6061,6.6135,6.6121,6.6178,6.6201,6.6163,6.6229,6.6247,6.6285,6.6301,6.627,6.636,6.6374,6.6459,6.649,6.6508,6.6523,6.6489,6.6621,6.6633,6.6645,6.6684,6.67,6.6508,6.6507,6.6507,6.6506,0,6.6209,6.6261,6.6312,6.6349,6.6378,6.644,6.6432,6.6463,6.6448,6.6447,6.6517,6.6533,6.6573,6.6593,6.6579,6.6675,6.6657,6.6624,6.6568,6.6667,6.6703,6.6718,6.6515,6.6513,6.6511,6.651,0,0,6.6377,6.6404,6.6422,6.6437,6.6463,6.6501,6.656,6.6599,6.6624,6.6652,6.6697,6.676,6.6729,6.675,6.6737,6.6778,6.6871,6.6739,6.6739,6.676,6.6974,6.6995,6.7013,6.6854,6.6856,6.6859,6.697,0,6.6497,6.6598,6.6585,6.6682,6.6727,6.669,6.674,6.676,6.6762,6.6798,6.6799,6.6842,6.6801,6.6812,6.6851,6.6852,6.6914,6.6844,6.6893,6.6895,6.6884,6.7033,6.7056,6.7161,6.6985,6.6987,6.6989,0,6.665,6.6682,6.6783,6.6798,6.6816,6.6862,6.6895,6.6932,6.6953,6.695,6.6973,6.6952,6.7008,6.6953,6.7027,6.698,6.6999,6.7003,6.7006,6.7007,6.6945,6.7034,6.7194,6.7209,6.7012,6.701,6.7008,0,6.6757,6.6825,6.6893,6.6907,6.6928,6.696,6.697,6.6987,6.7011,6.704,6.7054,6.7089,6.7107,6.7134,6.7122,6.7084,6.7197,6.7142,6.7193,6.7194,6.7216,6.7214,6.7378,6.7235,6.7235,6.7235,6.7235,0,6.689,6.6951,6.694,6.6981,6.7048,6.7033,6.7099,6.7104,6.712,6.7159,6.7131,6.7169,6.7153,6.7189,6.7181,6.724,6.725,6.7247,6.7244,6.7248,6.7248,6.7258,6.7249,6.7239,6.7238,6.7237,6.7237,0,6.7019,6.7014,6.7085,6.7098,6.7103,6.7151,6.7162,6.7199,6.7198,6.7248,6.7259,6.7256,6.7297,6.7289,6.7334,6.7328,6.7402,6.7391,6.7395,6.7391,6.7441,6.7435,6.7614,6.7635,6.7482,6.7484,6.7485,0,6.7102,6.7148,6.7166,6.7191,6.7203,6.7244,6.7267,6.7253,6.7278,6.7303,6.7337,6.7375,6.7404,6.7471,6.7471,6.7505,6.7492,6.7553,6.7497,6.7498,6.7488,6.7484,6.7486,6.7562,6.7564,6.7566,6.7567,0,6.7249,6.7244,6.7279,6.7312,6.734,6.7366,6.7389,6.7411,6.7398,6.7427,6.7468,6.7491,6.7536,6.7573,6.7603,6.7611,6.7586,6.7585,6.7598,6.7601,6.7599,6.7596,6.7421,6.758,6.7579,6.7578,6.7577,6.7577,6.7355,6.7393,6.741,6.7449,6.7464,6.7486,6.752,6.7523,6.7557,6.7592,6.7582,6.7628,6.7644,6.7682,6.7694,6.7728,6.7705,6.7725,6.7729,6.7733,6.7738,6.7597,6.7734,6.7734,6.7734,6.7733,6.7733,0,6.7496,6.7506,6.7542,6.7573,6.7603,6.7578,6.7601,6.7627,6.7668,6.7686,6.7715,6.776,6.7795,6.7799,6.7831,6.7858,6.7847,6.7866,6.7862,6.7864,6.7758,6.7742,6.7875,6.7875,6.7875,6.7875,6.7875,6.7875,6.7573,6.7635,6.7631,6.7699,6.7707,6.7751,6.7766,6.7784,6.7798,6.785,6.7879,6.7881,6.7893,6.7925,6.7955,6.7955,6.7967,6.799,6.7985,6.7886,6.7872,6.7858,6.7842,6.7994,6.7994,6.8087,6.8088,6.8089]}]]